Time,TemperatureF,DewpointF,PressureIn,WindDirection,WindDirectionDegrees,WindSpeedMPH,WindSpeedGustMPH,Humidity,HourlyPrecipIn,Conditions,Clouds,dailyrainin,SoftwareType,DateUTC
2013-08-24 00:00:00,57.9,52.1,30.12,NNW,328,0.0,3.0,81,0.00,,---,0.03,VWS V14.01,2013-08-24 04:00:00,
2013-08-24 00:01:00,57.4,51.3,30.14,North,356,0.0,7.0,80,0.00,,---,0.03,VWS V14.01,2013-08-24 04:01:00,
2013-08-24 00:06:00,57.4,51.3,30.14,NW,319,0.0,2.0,80,0.00,,---,0.00,VWS V14.01,2013-08-24 04:06:00,
2013-08-24 00:11:00,57.1,51.3,30.14,WNW,285,0.0,2.0,81,0.00,,---,0.00,VWS V14.01,2013-08-24 04:11:00,
2013-08-24 00:16:00,56.8,51.4,30.14,WNW,295,0.0,2.0,82,0.00,,---,0.00,VWS V14.01,2013-08-24 04:16:00,
2013-08-24 00:21:00,56.6,51.5,30.14,WNW,296,0.0,2.0,83,0.00,,---,0.00,VWS V14.01,2013-08-24 04:21:00,
2013-08-24 00:26:00,56.6,51.2,30.14,WNW,292,0.0,2.0,82,0.00,,---,0.00,VWS V14.01,2013-08-24 04:26:00,
2013-08-24 00:30:00,57.6,51.5,30.12,NW,304,0.0,4.0,80,0.00,,---,0.03,VWS V14.01,2013-08-24 04:30:00,
2013-08-24 00:31:00,56.8,51.0,30.15,WNW,302,0.0,4.0,81,0.00,,---,0.00,VWS V14.01,2013-08-24 04:31:00,
2013-08-24 00:36:00,56.8,51.0,30.15,WNW,284,0.0,3.0,81,0.00,,---,0.00,VWS V14.01,2013-08-24 04:36:00,
2013-08-24 00:41:00,56.6,51.2,30.15,West,278,0.0,4.0,82,0.00,,---,0.00,VWS V14.01,2013-08-24 04:41:00,
2013-08-24 00:46:00,56.6,51.2,30.15,NW,324,0.0,4.0,82,0.00,,---,0.00,VWS V14.01,2013-08-24 04:46:00,
2013-08-24 00:51:00,56.7,50.9,30.15,NE,34,0.0,4.0,81,0.00,,---,0.00,VWS V14.01,2013-08-24 04:51:00,
2013-08-24 00:56:00,56.7,51.3,30.15,NW,309,0.0,4.0,82,0.00,,---,0.00,VWS V14.01,2013-08-24 04:56:00,
2013-08-24 01:00:00,57.4,51.3,30.14,NW,308,2.0,7.0,80,0.00,,---,0.00,VWS V14.01,2013-08-24 05:00:00,
2013-08-24 01:01:00,56.7,51.3,30.15,WNW,285,1.0,5.0,82,0.00,,---,0.00,VWS V14.01,2013-08-24 05:01:00,
2013-08-24 01:06:00,56.6,51.2,30.15,NW,307,0.0,1.0,82,0.00,,---,0.00,VWS V14.01,2013-08-24 05:06:00,
2013-08-24 01:11:00,56.5,51.1,30.15,NW,312,0.0,3.0,82,0.00,,---,0.00,VWS V14.01,2013-08-24 05:11:00,
2013-08-24 01:16:00,56.4,51.0,30.15,NNW,338,0.0,3.0,82,0.00,,---,0.00,VWS V14.01,2013-08-24 05:16:00,
2013-08-24 01:21:00,56.2,50.8,30.16,NW,315,2.0,4.0,82,0.00,,---,0.00,VWS V14.01,2013-08-24 05:21:00,
2013-08-24 01:26:00,56.1,51.0,30.16,NW,316,1.0,4.0,83,0.00,,---,0.00,VWS V14.01,2013-08-24 05:26:00,
2013-08-24 01:30:00,56.0,50.9,30.16,NW,307,2.0,4.0,83,0.00,,---,0.00,VWS V14.01,2013-08-24 05:30:00,
2013-08-24 01:35:00,55.8,50.7,30.16,NNW,330,0.0,3.0,83,0.00,,---,0.00,VWS V14.01,2013-08-24 05:35:00,
2013-08-24 01:40:00,55.8,50.7,30.16,NW,309,0.0,3.0,83,0.00,,---,0.00,VWS V14.01,2013-08-24 05:40:00,
2013-08-24 01:45:00,55.6,50.8,30.16,NW,312,1.0,3.0,84,0.00,,---,0.00,VWS V14.01,2013-08-24 05:45:00,
2013-08-24 01:50:00,55.5,50.8,30.16,North,6,0.0,4.0,84,0.00,,---,0.00,VWS V14.01,2013-08-24 05:50:00,
2013-08-24 01:55:00,55.4,51.0,30.16,NNW,331,0.0,4.0,85,0.00,,---,0.00,VWS V14.01,2013-08-24 05:55:00,
2013-08-24 02:00:00,55.2,50.8,30.16,NW,321,0.0,4.0,85,0.00,,---,0.00,VWS V14.01,2013-08-24 06:00:00,
2013-08-24 02:05:00,55.0,50.9,30.16,NW,304,0.0,3.0,86,0.00,,---,0.00,VWS V14.01,2013-08-24 06:05:00,
2013-08-24 02:10:00,54.8,50.7,30.16,NW,311,0.0,3.0,86,0.00,,---,0.00,VWS V14.01,2013-08-24 06:10:00,
2013-08-24 02:15:00,54.6,50.8,30.16,NW,319,0.0,3.0,87,0.00,,---,0.00,VWS V14.01,2013-08-24 06:15:00,
2013-08-24 02:20:00,54.4,50.6,30.17,North,357,2.0,5.0,87,0.00,,---,0.00,VWS V14.01,2013-08-24 06:20:00,
2013-08-24 02:25:00,54.3,50.5,30.17,NNW,330,1.0,5.0,87,0.00,,---,0.00,VWS V14.01,2013-08-24 06:25:00,
2013-08-24 02:30:00,54.2,50.4,30.17,NW,307,0.0,5.0,87,0.00,,---,0.00,VWS V14.01,2013-08-24 06:30:00,
2013-08-24 02:35:00,54.0,50.2,30.17,WNW,292,0.0,2.0,87,0.00,,---,0.00,VWS V14.01,2013-08-24 06:35:00,
2013-08-24 02:40:00,53.8,50.0,30.17,NNW,330,2.0,2.0,87,0.00,,---,0.00,VWS V14.01,2013-08-24 06:40:00,
2013-08-24 02:45:00,53.6,49.8,30.17,NW,326,1.0,2.0,87,0.00,,---,0.00,VWS V14.01,2013-08-24 06:45:00,
2013-08-24 02:50:00,53.5,50.0,30.17,NW,311,0.0,3.0,88,0.00,,---,0.00,VWS V14.01,2013-08-24 06:50:00,
2013-08-24 02:55:00,53.4,49.9,30.17,NW,316,0.0,4.0,88,0.00,,---,0.00,VWS V14.01,2013-08-24 06:55:00,
2013-08-24 03:00:00,53.3,49.8,30.17,NW,324,0.0,4.0,88,0.00,,---,0.00,VWS V14.01,2013-08-24 07:00:00,
2013-08-24 03:05:00,53.2,49.7,30.17,WNW,288,2.0,3.0,88,0.00,,---,0.00,VWS V14.01,2013-08-24 07:05:00,
2013-08-24 03:10:00,53.2,49.7,30.17,NNW,328,1.0,3.0,88,0.00,,---,0.00,VWS V14.01,2013-08-24 07:10:00,
2013-08-24 03:15:00,53.1,49.7,30.18,NW,316,0.0,3.0,88,0.00,,---,0.00,VWS V14.01,2013-08-24 07:15:00,
2013-08-24 03:20:00,53.1,50.0,30.18,NW,322,0.0,4.0,89,0.00,,---,0.00,VWS V14.01,2013-08-24 07:20:00,
2013-08-24 03:25:00,53.1,50.0,30.18,North,8,0.0,4.0,89,0.00,,---,0.00,VWS V14.01,2013-08-24 07:25:00,
2013-08-24 03:30:00,52.9,49.8,30.18,NW,322,2.0,4.0,89,0.00,,---,0.00,VWS V14.01,2013-08-24 07:30:00,
2013-08-24 03:35:00,52.8,49.7,30.18,NW,307,0.0,2.0,89,0.00,,---,0.00,VWS V14.01,2013-08-24 07:35:00,
2013-08-24 03:40:00,52.8,49.7,30.18,NNW,327,1.0,2.0,89,0.00,,---,0.00,VWS V14.01,2013-08-24 07:40:00,
2013-08-24 03:45:00,52.7,49.2,30.18,NE,56,0.0,4.0,88,0.00,,---,0.00,VWS V14.01,2013-08-24 07:45:00,
2013-08-24 03:50:00,52.7,49.2,30.18,SE,127,0.0,4.0,88,0.00,,---,0.00,VWS V14.01,2013-08-24 07:50:00,
2013-08-24 03:55:00,52.8,49.3,30.18,WNW,293,0.0,5.0,88,0.00,,---,0.00,VWS V14.01,2013-08-24 07:55:00,
2013-08-24 04:00:00,52.7,49.0,30.19,WNW,291,0.0,5.0,87,0.00,,---,0.00,VWS V14.01,2013-08-24 08:00:00,
2013-08-24 04:05:00,52.8,49.3,30.19,NE,48,0.0,3.0,88,0.00,,---,0.00,VWS V14.01,2013-08-24 08:05:00,
2013-08-24 04:10:00,52.7,49.2,30.19,NW,325,0.0,3.0,88,0.00,,---,0.00,VWS V14.01,2013-08-24 08:10:00,
2013-08-24 04:15:00,52.7,49.2,30.19,NW,311,0.0,3.0,88,0.00,,---,0.00,VWS V14.01,2013-08-24 08:15:00,
2013-08-24 04:20:00,52.6,49.2,30.19,WNW,298,0.0,4.0,88,0.00,,---,0.00,VWS V14.01,2013-08-24 08:20:00,
2013-08-24 04:25:00,52.7,49.2,30.20,North,352,2.0,4.0,88,0.00,,---,0.00,VWS V14.01,2013-08-24 08:25:00,
2013-08-24 04:30:00,52.7,49.0,30.20,West,277,1.0,4.0,87,0.00,,---,0.00,VWS V14.01,2013-08-24 08:30:00,
2013-08-24 04:35:00,52.7,49.0,30.20,NNW,342,0.0,4.0,87,0.00,,---,0.00,VWS V14.01,2013-08-24 08:35:00,
2013-08-24 04:40:00,52.7,49.0,30.20,NW,322,3.0,4.0,87,0.00,,---,0.00,VWS V14.01,2013-08-24 08:40:00,
2013-08-24 04:45:00,52.7,48.6,30.20,NW,308,1.0,4.0,86,0.00,,---,0.00,VWS V14.01,2013-08-24 08:45:00,
2013-08-24 04:50:00,52.8,48.7,30.20,NW,315,0.0,4.0,86,0.00,,---,0.00,VWS V14.01,2013-08-24 08:50:00,
2013-08-24 04:55:00,53.0,48.6,30.21,NW,307,0.0,4.0,85,0.00,,---,0.00,VWS V14.01,2013-08-24 08:55:00,
2013-08-24 05:00:00,53.1,48.7,30.21,WNW,292,0.0,4.0,85,0.00,,---,0.00,VWS V14.01,2013-08-24 09:00:00,
2013-08-24 05:05:00,53.0,48.9,30.22,NW,314,0.0,1.0,86,0.00,,---,0.00,VWS V14.01,2013-08-24 09:05:00,
2013-08-24 05:10:00,52.8,48.7,30.21,NW,316,0.0,2.0,86,0.00,,---,0.00,VWS V14.01,2013-08-24 09:10:00,
2013-08-24 05:15:00,52.7,49.0,30.21,WNW,300,1.0,3.0,87,0.00,,---,0.00,VWS V14.01,2013-08-24 09:15:00,
2013-08-24 05:20:00,52.6,48.8,30.21,NNW,340,0.0,5.0,87,0.00,,---,0.00,VWS V14.01,2013-08-24 09:20:00,
2013-08-24 05:25:00,52.5,48.8,30.22,WNW,300,0.0,5.0,87,0.00,,---,0.00,VWS V14.01,2013-08-24 09:25:00,
2013-08-24 05:30:00,52.4,48.7,30.22,NW,314,0.0,5.0,87,0.00,,---,0.00,VWS V14.01,2013-08-24 09:30:00,
2013-08-24 05:35:00,52.5,48.8,30.22,WNW,288,1.0,3.0,87,0.00,,---,0.00,VWS V14.01,2013-08-24 09:35:00,
2013-08-24 05:40:00,52.4,48.7,30.22,NNW,338,4.0,4.0,87,0.00,,---,0.00,VWS V14.01,2013-08-24 09:40:00,
2013-08-24 05:45:00,52.4,48.7,30.23,NW,323,0.0,4.0,87,0.00,,---,0.00,VWS V14.01,2013-08-24 09:45:00,
2013-08-24 05:50:00,52.4,49.0,30.23,WNW,288,0.0,4.0,88,0.00,,---,0.00,VWS V14.01,2013-08-24 09:50:00,
2013-08-24 05:55:00,52.3,48.9,30.23,NW,326,3.0,4.0,88,0.00,,---,0.00,VWS V14.01,2013-08-24 09:55:00,
2013-08-24 06:00:00,52.5,49.0,30.23,NW,324,1.0,4.0,88,0.00,,---,0.00,VWS V14.01,2013-08-24 10:00:00,
2013-08-24 06:05:00,52.7,49.2,30.24,NNW,328,0.0,4.0,88,0.00,,---,0.00,VWS V14.01,2013-08-24 10:05:00,
2013-08-24 06:10:00,53.0,49.2,30.24,NNW,333,2.0,4.0,87,0.00,,---,0.00,VWS V14.01,2013-08-24 10:10:00,
2013-08-24 06:15:00,53.4,49.6,30.24,NW,322,0.0,4.0,87,0.00,,---,0.00,VWS V14.01,2013-08-24 10:15:00,
2013-08-24 06:20:00,54.0,49.9,30.24,WNW,290,0.0,4.0,86,0.00,,---,0.00,VWS V14.01,2013-08-24 10:20:00,
2013-08-24 06:25:00,54.4,50.3,30.24,North,354,0.0,4.0,86,0.00,,---,0.00,VWS V14.01,2013-08-24 10:25:00,
2013-08-24 06:30:00,54.7,50.3,30.24,NW,309,0.0,4.0,85,0.00,,---,0.00,VWS V14.01,2013-08-24 10:30:00,
2013-08-24 06:35:00,55.0,50.3,30.24,NNW,330,0.0,4.0,84,0.00,,---,0.00,VWS V14.01,2013-08-24 10:35:00,
2013-08-24 06:40:00,55.4,50.3,30.24,NNW,338,0.0,4.0,83,0.00,,---,0.00,VWS V14.01,2013-08-24 10:40:00,
2013-08-24 06:45:00,55.9,50.8,30.25,North,349,0.0,4.0,83,0.00,,---,0.00,VWS V14.01,2013-08-24 10:45:00,
2013-08-24 06:50:00,56.4,51.0,30.25,NNE,16,0.0,6.0,82,0.00,,---,0.00,VWS V14.01,2013-08-24 10:50:00,
2013-08-24 06:55:00,56.9,51.1,30.25,North,352,0.0,6.0,81,0.00,,---,0.00,VWS V14.01,2013-08-24 10:55:00,
2013-08-24 07:00:00,57.2,51.4,30.25,NE,56,0.0,6.0,81,0.00,,---,0.00,VWS V14.01,2013-08-24 11:00:00,
2013-08-24 07:05:00,57.5,51.0,30.26,West,281,0.0,4.0,79,0.00,,---,0.00,VWS V14.01,2013-08-24 11:05:00,
2013-08-24 07:10:00,57.9,51.1,30.26,NW,305,0.0,4.0,78,0.00,,---,0.00,VWS V14.01,2013-08-24 11:10:00,
2013-08-24 07:15:00,58.4,51.6,30.26,NNW,340,4.0,6.0,78,0.00,,---,0.00,VWS V14.01,2013-08-24 11:15:00,
2013-08-24 07:20:00,58.7,51.2,30.26,NW,310,1.0,7.0,76,0.00,,---,0.00,VWS V14.01,2013-08-24 11:20:00,
2013-08-24 07:25:00,59.0,51.5,30.26,WNW,301,2.0,7.0,76,0.00,,---,0.00,VWS V14.01,2013-08-24 11:25:00,
2013-08-24 07:30:00,59.4,51.5,30.26,NNE,32,0.0,7.0,75,0.00,,---,0.00,VWS V14.01,2013-08-24 11:30:00,
2013-08-24 07:35:00,59.7,51.0,30.26,NNW,340,1.0,9.0,73,0.00,,---,0.00,VWS V14.01,2013-08-24 11:35:00,
2013-08-24 07:40:00,60.0,51.3,30.26,NNW,335,10.0,10.0,73,0.00,,---,0.00,VWS V14.01,2013-08-24 11:40:00,
2013-08-24 07:45:00,60.1,50.7,30.27,WNW,293,4.0,11.0,71,0.00,,---,0.00,VWS V14.01,2013-08-24 11:45:00,
2013-08-24 07:50:00,60.3,51.2,30.27,NNW,333,2.0,11.0,72,0.00,,---,0.00,VWS V14.01,2013-08-24 11:50:00,
2013-08-24 07:55:00,60.7,52.0,30.27,NNE,20,3.0,11.0,73,0.00,,---,0.00,VWS V14.01,2013-08-24 11:55:00,
2013-08-24 08:00:00,61.0,51.2,30.27,NW,309,1.0,11.0,70,0.00,,---,0.00,VWS V14.01,2013-08-24 12:00:00,
2013-08-24 08:05:00,61.3,51.5,30.27,NW,308,1.0,8.0,70,0.00,,---,0.00,VWS V14.01,2013-08-24 12:05:00,
2013-08-24 08:10:00,61.4,51.2,30.28,NNW,342,1.0,8.0,69,0.00,,---,0.00,VWS V14.01,2013-08-24 12:10:00,
2013-08-24 08:15:00,61.8,51.1,30.28,NW,304,5.0,8.0,68,0.00,,---,0.00,VWS V14.01,2013-08-24 12:15:00,
2013-08-24 08:20:00,62.0,51.7,30.28,NW,323,7.0,8.0,69,0.00,,---,0.00,VWS V14.01,2013-08-24 12:20:00,
2013-08-24 08:25:00,62.2,51.5,30.28,SSE,150,3.0,9.0,68,0.00,,---,0.00,VWS V14.01,2013-08-24 12:25:00,
2013-08-24 08:30:00,62.3,50.8,30.28,North,357,0.0,9.0,66,0.00,,---,0.00,VWS V14.01,2013-08-24 12:30:00,
2013-08-24 08:35:00,62.3,51.2,30.28,NW,312,2.0,7.0,67,0.00,,---,0.00,VWS V14.01,2013-08-24 12:35:00,
2013-08-24 08:40:00,62.4,50.9,30.28,NNW,328,2.0,7.0,66,0.00,,---,0.00,VWS V14.01,2013-08-24 12:40:00,
2013-08-24 08:45:00,62.6,51.1,30.28,NNE,16,0.0,7.0,66,0.00,,---,0.00,VWS V14.01,2013-08-24 12:45:00,
2013-08-24 08:50:00,63.1,51.6,30.28,NW,321,2.0,7.0,66,0.00,,---,0.00,VWS V14.01,2013-08-24 12:50:00,
2013-08-24 08:55:00,63.4,51.9,30.28,NNW,345,0.0,7.0,66,0.00,,---,0.00,VWS V14.01,2013-08-24 12:55:00,
2013-08-24 09:00:00,63.7,51.7,30.28,North,353,3.0,8.0,65,0.00,,---,0.00,VWS V14.01,2013-08-24 13:00:00,
2013-08-24 09:05:00,64.1,52.5,30.28,NE,40,0.0,10.0,66,0.00,,---,0.00,VWS V14.01,2013-08-24 13:05:00,
2013-08-24 09:10:00,64.7,53.1,30.28,NNE,16,0.0,10.0,66,0.00,,---,0.00,VWS V14.01,2013-08-24 13:10:00,
2013-08-24 09:15:00,65.1,52.6,30.28,NNW,343,0.0,10.0,64,0.00,,---,0.00,VWS V14.01,2013-08-24 13:15:00,
2013-08-24 09:20:00,65.7,53.6,30.29,NE,48,1.0,10.0,65,0.00,,---,0.00,VWS V14.01,2013-08-24 13:20:00,
2013-08-24 09:25:00,66.0,53.1,30.29,NW,321,0.0,10.0,63,0.00,,---,0.00,VWS V14.01,2013-08-24 13:25:00,
2013-08-24 09:30:00,66.6,53.6,30.29,ENE,63,0.0,10.0,63,0.00,,---,0.00,VWS V14.01,2013-08-24 13:30:00,
2013-08-24 09:35:00,66.9,52.1,30.29,NNW,330,1.0,5.0,59,0.00,,---,0.00,VWS V14.01,2013-08-24 13:35:00,
2013-08-24 09:40:00,67.2,53.8,30.29,NNE,33,3.0,7.0,62,0.00,,---,0.00,VWS V14.01,2013-08-24 13:40:00,
2013-08-24 09:45:00,67.5,52.7,30.29,NNE,17,1.0,7.0,59,0.00,,---,0.00,VWS V14.01,2013-08-24 13:45:00,
2013-08-24 09:50:00,67.8,53.0,30.29,North,355,4.0,7.0,59,0.00,,---,0.00,VWS V14.01,2013-08-24 13:50:00,
2013-08-24 09:55:00,68.1,53.2,30.29,NNW,333,3.0,7.0,59,0.00,,---,0.00,VWS V14.01,2013-08-24 13:55:00,
2013-08-24 10:00:00,68.1,52.3,30.29,NW,322,4.0,9.0,57,0.00,,---,0.00,VWS V14.01,2013-08-24 14:00:00,
2013-08-24 10:05:00,68.3,52.5,30.29,North,10,2.0,7.0,57,0.00,,---,0.00,VWS V14.01,2013-08-24 14:05:00,
2013-08-24 10:10:00,68.5,51.2,30.30,North,349,2.0,9.0,54,0.00,,---,0.00,VWS V14.01,2013-08-24 14:10:00,
2013-08-24 10:15:00,68.6,52.3,30.29,North,4,1.0,9.0,56,0.00,,---,0.00,VWS V14.01,2013-08-24 14:15:00,
2013-08-24 10:20:00,69.0,52.7,30.29,NNE,32,2.0,9.0,56,0.00,,---,0.00,VWS V14.01,2013-08-24 14:20:00,
2013-08-24 10:25:00,69.4,53.0,30.29,NE,44,1.0,9.0,56,0.00,,---,0.00,VWS V14.01,2013-08-24 14:25:00,
2013-08-24 10:30:00,69.7,51.8,30.29,East,89,1.0,9.0,53,0.00,,---,0.00,VWS V14.01,2013-08-24 14:30:00,
2013-08-24 10:35:00,69.9,50.4,30.29,NNE,16,6.0,6.0,50,0.00,,---,0.00,VWS V14.01,2013-08-24 14:35:00,
2013-08-24 10:40:00,70.1,50.1,30.29,NNW,337,2.0,6.0,49,0.00,,---,0.00,VWS V14.01,2013-08-24 14:40:00,
2013-08-24 10:45:00,70.6,50.0,30.29,North,8,2.0,6.0,48,0.00,,---,0.00,VWS V14.01,2013-08-24 14:45:00,
2013-08-24 10:50:00,70.6,48.2,30.29,ENE,70,4.0,6.0,45,0.00,,---,0.00,VWS V14.01,2013-08-24 14:50:00,
2013-08-24 10:55:00,70.7,49.5,30.29,East,85,1.0,6.0,47,0.00,,---,0.00,VWS V14.01,2013-08-24 14:55:00,
2013-08-24 11:00:00,71.0,49.2,30.29,ENE,61,2.0,6.0,46,0.00,,---,0.00,VWS V14.01,2013-08-24 15:00:00,
2013-08-24 11:05:00,71.2,48.2,30.29,NNW,340,0.0,9.0,44,0.00,,---,0.00,VWS V14.01,2013-08-24 15:05:00,
2013-08-24 11:10:00,71.4,48.4,30.29,NW,316,0.0,9.0,44,0.00,,---,0.00,VWS V14.01,2013-08-24 15:10:00,
2013-08-24 11:15:00,71.7,49.8,30.28,NE,47,2.0,9.0,46,0.00,,---,0.00,VWS V14.01,2013-08-24 15:15:00,
2013-08-24 11:20:00,71.7,46.8,30.28,ESE,105,2.0,9.0,41,0.00,,---,0.00,VWS V14.01,2013-08-24 15:20:00,
2013-08-24 11:25:00,71.8,46.2,30.28,ENE,75,3.0,9.0,40,0.00,,---,0.00,VWS V14.01,2013-08-24 15:25:00,
2013-08-24 11:30:00,71.8,46.2,30.28,NW,321,2.0,11.0,40,0.00,,---,0.00,VWS V14.01,2013-08-24 15:30:00,
2013-08-24 11:35:00,71.9,47.0,30.28,SE,146,0.0,7.0,41,0.00,,---,0.00,VWS V14.01,2013-08-24 15:35:00,
2013-08-24 11:40:00,72.1,47.1,30.28,WNW,296,3.0,10.0,41,0.00,,---,0.00,VWS V14.01,2013-08-24 15:40:00,
2013-08-24 11:45:00,71.9,47.0,30.28,NNE,27,4.0,10.0,41,0.00,,---,0.00,VWS V14.01,2013-08-24 15:45:00,
2013-08-24 11:50:00,72.1,47.8,30.28,NNW,345,4.0,10.0,42,0.00,,---,0.00,VWS V14.01,2013-08-24 15:50:00,
2013-08-24 11:55:00,72.4,46.1,30.28,ENE,68,3.0,10.0,39,0.00,,---,0.00,VWS V14.01,2013-08-24 15:55:00,
2013-08-24 12:00:00,72.4,46.7,30.28,NE,34,3.0,10.0,40,0.00,,---,0.00,VWS V14.01,2013-08-24 16:00:00,
2013-08-24 12:05:00,73.0,48.6,30.28,WNW,301,0.0,9.0,42,0.00,,---,0.00,VWS V14.01,2013-08-24 16:05:00,
2013-08-24 12:10:00,73.0,45.9,30.28,NW,311,1.0,9.0,38,0.00,,---,0.00,VWS V14.01,2013-08-24 16:10:00,
2013-08-24 12:15:00,73.0,45.2,30.27,ESE,117,3.0,11.0,37,0.00,,---,0.00,VWS V14.01,2013-08-24 16:15:00,
2013-08-24 12:20:00,72.8,44.3,30.28,NE,56,4.0,11.0,36,0.00,,---,0.00,VWS V14.01,2013-08-24 16:20:00,
2013-08-24 12:25:00,72.7,45.0,30.28,NNW,329,5.0,11.0,37,0.00,,---,0.00,VWS V14.01,2013-08-24 16:25:00,
2013-08-24 12:30:00,72.9,45.8,30.28,NNW,334,3.0,11.0,38,0.00,,---,0.00,VWS V14.01,2013-08-24 16:30:00,
2013-08-24 12:35:00,73.1,46.0,30.27,North,355,1.0,9.0,38,0.00,,---,0.00,VWS V14.01,2013-08-24 16:35:00,
2013-08-24 12:40:00,73.2,46.1,30.27,NE,44,3.0,9.0,38,0.00,,---,0.00,VWS V14.01,2013-08-24 16:40:00,
2013-08-24 12:45:00,73.2,45.4,30.27,NE,34,1.0,9.0,37,0.00,,---,0.00,VWS V14.01,2013-08-24 16:45:00,
2013-08-24 12:50:00,73.6,47.8,30.27,North,1,0.0,9.0,40,0.00,,---,0.00,VWS V14.01,2013-08-24 16:50:00,
2013-08-24 12:55:00,74.3,48.4,30.27,ENE,72,0.0,9.0,40,0.00,,---,0.00,VWS V14.01,2013-08-24 16:55:00,
2013-08-24 13:00:00,74.3,47.1,30.27,NE,43,0.0,9.0,38,0.00,,---,0.00,VWS V14.01,2013-08-24 17:00:00,
2013-08-24 13:05:00,74.0,45.4,30.27,ESE,103,3.0,6.0,36,0.00,,---,0.00,VWS V14.01,2013-08-24 17:05:00,
2013-08-24 13:10:00,73.7,45.8,30.27,ENE,77,1.0,9.0,37,0.00,,---,0.00,VWS V14.01,2013-08-24 17:10:00,
2013-08-24 13:15:00,73.9,46.0,30.27,NE,53,3.0,9.0,37,0.00,,---,0.00,VWS V14.01,2013-08-24 17:15:00,
2013-08-24 13:20:00,73.7,45.8,30.27,NNE,16,11.0,12.0,37,0.00,,---,0.00,VWS V14.01,2013-08-24 17:20:00,
2013-08-24 13:25:00,73.8,45.9,30.27,ESE,105,1.0,12.0,37,0.00,,---,0.00,VWS V14.01,2013-08-24 17:25:00,
2013-08-24 13:30:00,74.1,46.9,30.27,North,5,0.0,12.0,38,0.00,,---,0.00,VWS V14.01,2013-08-24 17:30:00,
2013-08-24 13:35:00,74.2,47.0,30.27,NNW,340,1.0,11.0,38,0.00,,---,0.00,VWS V14.01,2013-08-24 17:35:00,
2013-08-24 13:40:00,74.1,46.9,30.27,NNE,22,5.0,11.0,38,0.00,,---,0.00,VWS V14.01,2013-08-24 17:40:00,
2013-08-24 13:45:00,74.0,46.1,30.27,East,96,0.0,11.0,37,0.00,,---,0.00,VWS V14.01,2013-08-24 17:45:00,
2013-08-24 13:50:00,74.3,48.4,30.27,NE,39,0.0,11.0,40,0.00,,---,0.00,VWS V14.01,2013-08-24 17:50:00,
2013-08-24 13:55:00,74.6,48.0,30.27,NE,40,0.0,11.0,39,0.00,,---,0.00,VWS V14.01,2013-08-24 17:55:00,
2013-08-24 14:00:00,74.8,48.9,30.27,ENE,75,1.0,11.0,40,0.00,,---,0.00,VWS V14.01,2013-08-24 18:00:00,
2013-08-24 14:05:00,74.8,48.9,30.27,NE,48,1.0,7.0,40,0.00,,---,0.00,VWS V14.01,2013-08-24 18:05:00,
2013-08-24 14:10:00,74.7,48.8,30.27,WNW,302,1.0,9.0,40,0.00,,---,0.00,VWS V14.01,2013-08-24 18:10:00,
2013-08-24 14:15:00,74.9,48.3,30.26,NE,50,1.0,9.0,39,0.00,,---,0.00,VWS V14.01,2013-08-24 18:15:00,
2013-08-24 14:19:00,75.2,50.6,30.26,South,184,0.0,9.0,42,0.00,,---,0.00,VWS V14.01,2013-08-24 18:19:00,
2013-08-24 14:24:00,75.4,50.1,30.26,WSW,246,3.0,9.0,41,0.00,,---,0.00,VWS V14.01,2013-08-24 18:24:00,
2013-08-24 14:29:00,75.2,46.4,30.26,NNW,338,1.0,9.0,36,0.00,,---,0.00,VWS V14.01,2013-08-24 18:29:00,
2013-08-24 14:30:00,74.2,47.7,30.27,NNW,347,6.0,12.0,39,0.00,,---,0.00,VWS V14.01,2013-08-24 18:30:00,
2013-08-24 14:34:00,75.0,46.3,30.26,ENE,75,1.0,4.0,36,0.00,,---,0.00,VWS V14.01,2013-08-24 18:34:00,
2013-08-24 14:39:00,75.2,47.2,30.26,NE,47,2.0,5.0,37,0.00,,---,0.00,VWS V14.01,2013-08-24 18:39:00,
2013-08-24 14:44:00,74.9,48.3,30.26,ENE,77,2.0,7.0,39,0.00,,---,0.00,VWS V14.01,2013-08-24 18:44:00,
2013-08-24 14:49:00,75.3,47.3,30.26,NE,44,1.0,7.0,37,0.00,,---,0.00,VWS V14.01,2013-08-24 18:49:00,
2013-08-24 14:54:00,75.3,47.3,30.25,WNW,291,1.0,7.0,37,0.00,,---,0.00,VWS V14.01,2013-08-24 18:54:00,
2013-08-24 14:59:00,75.7,49.0,30.25,ENE,65,1.0,7.0,39,0.00,,---,0.00,VWS V14.01,2013-08-24 18:59:00,
2013-08-24 15:00:00,74.8,47.5,30.27,NE,37,2.0,11.0,38,0.00,,---,0.00,VWS V14.01,2013-08-24 19:00:00,
2013-08-24 15:04:00,75.6,48.2,30.26,NE,46,2.0,8.0,38,0.00,,---,0.00,VWS V14.01,2013-08-24 19:04:00,
2013-08-24 15:09:00,75.8,48.4,30.26,NNW,333,6.0,8.0,38,0.00,,---,0.00,VWS V14.01,2013-08-24 19:09:00,
2013-08-24 15:14:00,75.6,48.2,30.26,NW,314,1.0,8.0,38,0.00,,---,0.00,VWS V14.01,2013-08-24 19:14:00,
2013-08-24 15:19:00,76.1,48.7,30.26,ENE,72,1.0,8.0,38,0.00,,---,0.00,VWS V14.01,2013-08-24 19:19:00,
2013-08-24 15:24:00,76.2,48.8,30.25,NNW,347,2.0,8.0,38,0.00,,---,0.00,VWS V14.01,2013-08-24 19:24:00,
2013-08-24 15:29:00,76.3,49.5,30.25,NW,305,1.0,8.0,39,0.00,,---,0.00,VWS V14.01,2013-08-24 19:29:00,
2013-08-24 15:30:00,75.1,46.3,30.26,East,85,2.0,9.0,36,0.00,,---,0.00,VWS V14.01,2013-08-24 19:30:00,
2013-08-24 15:34:00,76.1,48.0,30.26,NE,49,0.0,8.0,37,0.00,,---,0.00,VWS V14.01,2013-08-24 19:34:00,
2013-08-24 15:39:00,76.1,47.2,30.26,NNW,338,1.0,8.0,36,0.00,,---,0.00,VWS V14.01,2013-08-24 19:39:00,
2013-08-24 15:44:00,76.1,48.0,30.26,NNW,342,5.0,8.0,37,0.00,,---,0.00,VWS V14.01,2013-08-24 19:44:00,
2013-08-24 15:49:00,75.9,47.8,30.26,NNE,20,0.0,8.0,37,0.00,,---,0.00,VWS V14.01,2013-08-24 19:49:00,
2013-08-24 15:54:00,75.9,47.1,30.25,NNW,330,2.0,8.0,36,0.00,,---,0.00,VWS V14.01,2013-08-24 19:54:00,
2013-08-24 15:59:00,75.8,47.0,30.25,NNE,26,1.0,8.0,36,0.00,,---,0.00,VWS V14.01,2013-08-24 19:59:00,
2013-08-24 16:00:00,75.7,47.6,30.26,ESE,120,2.0,7.0,37,0.00,,---,0.00,VWS V14.01,2013-08-24 20:00:00,
2013-08-24 16:04:00,75.9,47.8,30.25,West,263,1.0,2.0,37,0.00,,---,0.00,VWS V14.01,2013-08-24 20:04:00,
2013-08-24 16:09:00,76.1,47.2,30.25,North,353,0.0,4.0,36,0.00,,---,0.00,VWS V14.01,2013-08-24 20:09:00,
2013-08-24 16:14:00,76.4,46.0,30.25,West,281,1.0,9.0,34,0.00,,---,0.00,VWS V14.01,2013-08-24 20:14:00,
2013-08-24 16:19:00,76.1,48.0,30.25,North,356,0.0,9.0,37,0.00,,---,0.00,VWS V14.01,2013-08-24 20:19:00,
2013-08-24 16:24:00,76.0,49.3,30.25,ENE,60,0.0,9.0,39,0.00,,---,0.00,VWS V14.01,2013-08-24 20:24:00,
2013-08-24 16:29:00,76.3,47.4,30.25,SW,218,0.0,9.0,36,0.00,,---,0.00,VWS V14.01,2013-08-24 20:29:00,
2013-08-24 16:30:00,76.2,48.0,30.25,WNW,287,1.0,8.0,37,0.00,,---,0.00,VWS V14.01,2013-08-24 20:30:00,
2013-08-24 16:34:00,76.7,48.5,30.25,NE,54,0.0,5.0,37,0.00,,---,0.00,VWS V14.01,2013-08-24 20:34:00,
2013-08-24 16:39:00,76.5,46.1,30.25,NW,309,1.0,5.0,34,0.00,,---,0.00,VWS V14.01,2013-08-24 20:39:00,
2013-08-24 16:44:00,76.1,48.7,30.25,North,8,2.0,8.0,38,0.00,,---,0.00,VWS V14.01,2013-08-24 20:44:00,
2013-08-24 16:49:00,76.0,47.2,30.25,NE,43,2.0,8.0,36,0.00,,---,0.00,VWS V14.01,2013-08-24 20:49:00,
2013-08-24 16:54:00,76.0,48.6,30.25,NE,49,0.0,8.0,38,0.00,,---,0.00,VWS V14.01,2013-08-24 20:54:00,
2013-08-24 16:59:00,75.7,48.3,30.25,NW,309,1.0,8.0,38,0.00,,---,0.00,VWS V14.01,2013-08-24 20:59:00,
2013-08-24 17:00:00,75.8,47.0,30.25,NE,36,0.0,8.0,36,0.00,,---,0.00,VWS V14.01,2013-08-24 21:00:00,
2013-08-24 17:04:00,75.5,48.8,30.25,NNW,333,0.0,6.0,39,0.00,,---,0.00,VWS V14.01,2013-08-24 21:04:00,
2013-08-24 17:09:00,75.5,46.7,30.25,WNW,302,5.0,7.0,36,0.00,,---,0.00,VWS V14.01,2013-08-24 21:09:00,
2013-08-24 17:14:00,75.1,48.5,30.25,West,281,0.0,7.0,39,0.00,,---,0.00,VWS V14.01,2013-08-24 21:14:00,
2013-08-24 17:19:00,74.9,46.9,30.25,NW,319,0.0,7.0,37,0.00,,---,0.00,VWS V14.01,2013-08-24 21:19:00,
2013-08-24 17:24:00,74.9,47.6,30.25,NNE,20,0.0,7.0,38,0.00,,---,0.00,VWS V14.01,2013-08-24 21:24:00,
2013-08-24 17:29:00,74.6,50.0,30.25,WNW,295,0.0,7.0,42,0.00,,---,0.00,VWS V14.01,2013-08-24 21:29:00,
2013-08-24 17:30:00,76.4,48.9,30.25,NW,320,1.0,9.0,38,0.00,,---,0.00,VWS V14.01,2013-08-24 21:30:00,
2013-08-24 17:34:00,74.3,49.1,30.25,North,350,4.0,4.0,41,0.00,,---,0.00,VWS V14.01,2013-08-24 21:34:00,
2013-08-24 17:39:00,74.1,48.3,30.25,NNW,330,1.0,6.0,40,0.00,,---,0.00,VWS V14.01,2013-08-24 21:39:00,
2013-08-24 17:44:00,74.0,47.5,30.25,North,6,0.0,6.0,39,0.00,,---,0.00,VWS V14.01,2013-08-24 21:44:00,
2013-08-24 17:49:00,73.6,49.8,30.25,NW,321,0.0,6.0,43,0.00,,---,0.00,VWS V14.01,2013-08-24 21:49:00,
2013-08-24 17:54:00,73.2,46.8,30.25,NW,322,1.0,8.0,39,0.00,,---,0.00,VWS V14.01,2013-08-24 21:54:00,
2013-08-24 17:59:00,73.3,49.5,30.25,NW,305,0.0,8.0,43,0.00,,---,0.00,VWS V14.01,2013-08-24 21:59:00,
2013-08-24 18:00:00,75.7,49.7,30.25,NE,43,2.0,8.0,40,0.00,,---,0.00,VWS V14.01,2013-08-24 22:00:00,
2013-08-24 18:04:00,73.1,48.7,30.25,NW,308,0.0,5.0,42,0.00,,---,0.00,VWS V14.01,2013-08-24 22:04:00,
2013-08-24 18:09:00,72.9,47.8,30.25,NW,319,0.0,5.0,41,0.00,,---,0.00,VWS V14.01,2013-08-24 22:09:00,
2013-08-24 18:14:00,72.9,49.1,30.25,NNW,335,0.0,5.0,43,0.00,,---,0.00,VWS V14.01,2013-08-24 22:14:00,
2013-08-24 18:19:00,73.0,49.8,30.25,NNW,334,0.0,5.0,44,0.00,,---,0.00,VWS V14.01,2013-08-24 22:19:00,
2013-08-24 18:24:00,72.4,49.9,30.25,North,1,0.0,5.0,45,0.00,,---,0.00,VWS V14.01,2013-08-24 22:24:00,
2013-08-24 18:29:00,71.7,49.2,30.25,NW,326,2.0,5.0,45,0.00,,---,0.00,VWS V14.01,2013-08-24 22:29:00,
2013-08-24 18:30:00,74.5,49.9,30.25,NNW,327,2.0,7.0,42,0.00,,---,0.00,VWS V14.01,2013-08-24 22:30:00,
2013-08-24 18:34:00,71.3,49.5,30.25,NW,326,0.0,0.0,46,0.00,,---,0.00,VWS V14.01,2013-08-24 22:34:00,
2013-08-24 18:39:00,70.6,50.0,30.25,NW,326,0.0,0.0,48,0.00,,---,0.00,VWS V14.01,2013-08-24 22:39:00,
2013-08-24 18:44:00,70.1,50.1,30.25,NW,326,0.0,0.0,49,0.00,,---,0.00,VWS V14.01,2013-08-24 22:44:00,
2013-08-24 18:49:00,69.4,50.5,30.25,NW,326,0.0,0.0,51,0.00,,---,0.00,VWS V14.01,2013-08-24 22:49:00,
2013-08-24 18:54:00,68.7,50.9,30.25,SW,224,0.0,2.0,53,0.00,,---,0.00,VWS V14.01,2013-08-24 22:54:00,
2013-08-24 18:59:00,67.7,51.5,30.25,West,266,1.0,4.0,56,0.00,,---,0.00,VWS V14.01,2013-08-24 22:59:00,
2013-08-24 19:00:00,73.2,47.5,30.25,NW,323,0.0,8.0,40,0.00,,---,0.00,VWS V14.01,2013-08-24 23:00:00,
2013-08-24 19:04:00,67.1,51.8,30.25,WSW,242,1.0,1.0,58,0.00,,---,0.00,VWS V14.01,2013-08-24 23:04:00,
2013-08-24 19:09:00,66.5,52.2,30.26,WNW,302,0.0,4.0,60,0.00,,---,0.00,VWS V14.01,2013-08-24 23:09:00,
2013-08-24 19:14:00,65.9,52.5,30.26,WSW,257,2.0,4.0,62,0.00,,---,0.00,VWS V14.01,2013-08-24 23:14:00,
2013-08-24 19:19:00,65.4,52.9,30.26,West,263,0.0,4.0,64,0.00,,---,0.00,VWS V14.01,2013-08-24 23:19:00,
2013-08-24 19:24:00,64.9,52.9,30.26,West,266,1.0,4.0,65,0.00,,---,0.00,VWS V14.01,2013-08-24 23:24:00,
2013-08-24 19:29:00,64.5,52.9,30.26,WNW,300,1.0,4.0,66,0.00,,---,0.00,VWS V14.01,2013-08-24 23:29:00,
2013-08-24 19:30:00,71.5,50.8,30.25,NW,326,0.0,5.0,48,0.00,,---,0.00,VWS V14.01,2013-08-24 23:30:00,
2013-08-24 19:34:00,64.1,53.3,30.26,WNW,295,4.0,4.0,68,0.00,,---,0.00,VWS V14.01,2013-08-24 23:34:00,
2013-08-24 19:39:00,63.7,53.3,30.26,West,266,0.0,4.0,69,0.00,,---,0.00,VWS V14.01,2013-08-24 23:39:00,
2013-08-24 19:43:00,63.3,53.4,30.27,West,263,0.0,4.0,70,0.00,,---,0.00,VWS V14.01,2013-08-24 23:43:00,
2013-08-24 19:48:00,63.0,53.5,30.27,NW,319,0.0,4.0,71,0.00,,---,0.00,VWS V14.01,2013-08-24 23:48:00,
2013-08-24 19:53:00,62.7,53.9,30.27,West,274,1.0,4.0,73,0.00,,---,0.00,VWS V14.01,2013-08-24 23:53:00,
2013-08-24 19:58:00,62.6,53.8,30.27,WSW,257,0.0,4.0,73,0.00,,---,0.00,VWS V14.01,2013-08-24 23:58:00,
2013-08-24 20:00:00,67.5,51.3,30.25,West,259,0.0,4.0,56,0.00,,---,0.00,VWS V14.01,2013-08-25 00:00:00,
2013-08-24 20:03:00,62.4,54.0,30.28,West,259,0.0,0.0,74,0.00,,---,0.00,VWS V14.01,2013-08-25 00:03:00,
2013-08-24 20:08:00,62.1,53.7,30.28,West,266,0.0,1.0,74,0.00,,---,0.00,VWS V14.01,2013-08-25 00:08:00,
2013-08-24 20:13:00,61.8,53.4,30.28,West,266,0.0,1.0,74,0.00,,---,0.00,VWS V14.01,2013-08-25 00:13:00,
2013-08-24 20:18:00,61.7,53.3,30.28,WSW,240,0.0,1.0,74,0.00,,---,0.00,VWS V14.01,2013-08-25 00:18:00,
2013-08-24 20:23:00,61.5,53.5,30.28,WSW,250,0.0,1.0,75,0.00,,---,0.00,VWS V14.01,2013-08-25 00:23:00,
2013-08-24 20:28:00,61.4,53.8,30.28,West,267,0.0,1.0,76,0.00,,---,0.00,VWS V14.01,2013-08-25 00:28:00,
2013-08-24 20:30:00,64.3,52.7,30.26,WSW,253,0.0,4.0,66,0.00,,---,0.00,VWS V14.01,2013-08-25 00:30:00,
2013-08-24 20:33:00,61.3,53.7,30.29,SSW,207,0.0,0.0,76,0.00,,---,0.00,VWS V14.01,2013-08-25 00:33:00,
2013-08-24 20:38:00,60.9,53.3,30.29,SSW,207,0.0,0.0,76,0.00,,---,0.00,VWS V14.01,2013-08-25 00:38:00,
2013-08-24 20:43:00,60.5,52.9,30.29,SSW,207,0.0,0.0,76,0.00,,---,0.00,VWS V14.01,2013-08-25 00:43:00,
2013-08-24 20:48:00,60.0,52.8,30.29,SSW,207,0.0,0.0,77,0.00,,---,0.00,VWS V14.01,2013-08-25 00:48:00,
2013-08-24 20:53:00,59.6,52.7,30.29,SSW,207,0.0,0.0,78,0.00,,---,0.00,VWS V14.01,2013-08-25 00:53:00,
2013-08-24 20:58:00,59.1,52.6,30.29,SSW,207,0.0,0.0,79,0.00,,---,0.00,VWS V14.01,2013-08-25 00:58:00,
2013-08-24 21:00:00,62.5,53.7,30.27,West,278,0.0,4.0,73,0.00,,---,0.00,VWS V14.01,2013-08-25 01:00:00,
2013-08-24 21:03:00,58.6,52.5,30.30,SSW,207,0.0,0.0,80,0.00,,---,0.00,VWS V14.01,2013-08-25 01:03:00,
2013-08-24 21:08:00,58.4,52.3,30.30,SSW,207,0.0,0.0,80,0.00,,---,0.00,VWS V14.01,2013-08-25 01:08:00,
2013-08-24 21:13:00,58.0,51.9,30.30,SSW,207,0.0,0.0,80,0.00,,---,0.00,VWS V14.01,2013-08-25 01:13:00,
2013-08-24 21:18:00,57.4,51.6,30.30,SSW,207,0.0,0.0,81,0.00,,---,0.00,VWS V14.01,2013-08-25 01:18:00,
2013-08-24 21:23:00,56.9,51.5,30.30,SSW,207,0.0,0.0,82,0.00,,---,0.00,VWS V14.01,2013-08-25 01:23:00,
2013-08-24 21:28:00,56.5,51.7,30.30,SSW,207,0.0,0.0,84,0.00,,---,0.00,VWS V14.01,2013-08-25 01:28:00,
2013-08-24 21:30:00,61.3,53.7,30.29,West,268,0.0,1.0,76,0.00,,---,0.00,VWS V14.01,2013-08-25 01:30:00,
2013-08-24 21:33:00,56.1,51.7,30.30,SSW,207,0.0,0.0,85,0.00,,---,0.00,VWS V14.01,2013-08-25 01:33:00,
2013-08-24 21:38:00,55.8,51.4,30.30,SSW,207,0.0,0.0,85,0.00,,---,0.00,VWS V14.01,2013-08-25 01:38:00,
2013-08-24 21:43:00,55.6,51.5,30.30,SSW,207,0.0,0.0,86,0.00,,---,0.00,VWS V14.01,2013-08-25 01:43:00,
2013-08-24 21:48:00,55.3,51.2,30.30,SW,218,0.0,0.0,86,0.00,,---,0.00,VWS V14.01,2013-08-25 01:48:00,
2013-08-24 21:53:00,55.2,51.1,30.30,SW,218,0.0,1.0,86,0.00,,---,0.00,VWS V14.01,2013-08-25 01:53:00,
2013-08-24 21:58:00,55.0,50.9,30.30,SW,218,0.0,1.0,86,0.00,,---,0.00,VWS V14.01,2013-08-25 01:58:00,
2013-08-24 22:00:00,58.8,52.3,30.30,SSW,207,0.0,0.0,79,0.00,,---,0.00,VWS V14.01,2013-08-25 02:00:00,
2013-08-24 22:03:00,55.1,51.0,30.30,SW,218,0.0,0.0,86,0.00,,---,0.00,VWS V14.01,2013-08-25 02:03:00,
2013-08-24 22:08:00,55.0,50.9,30.30,SW,222,0.0,0.0,86,0.00,,---,0.00,VWS V14.01,2013-08-25 02:08:00,
2013-08-24 22:13:00,54.6,50.8,30.30,SW,222,0.0,0.0,87,0.00,,---,0.00,VWS V14.01,2013-08-25 02:13:00,
2013-08-24 22:18:00,54.6,51.1,30.31,SW,223,0.0,0.0,88,0.00,,---,0.00,VWS V14.01,2013-08-25 02:18:00,
2013-08-24 22:23:00,54.7,50.9,30.30,SW,222,0.0,0.0,87,0.00,,---,0.00,VWS V14.01,2013-08-25 02:23:00,
2013-08-24 22:28:00,54.4,50.6,30.30,SW,222,0.0,0.0,87,0.00,,---,0.00,VWS V14.01,2013-08-25 02:28:00,
2013-08-24 22:30:00,56.2,51.8,30.30,SSW,207,0.0,0.0,85,0.00,,---,0.00,VWS V14.01,2013-08-25 02:30:00,
2013-08-24 22:33:00,54.2,50.7,30.30,SW,223,0.0,0.0,88,0.00,,---,0.00,VWS V14.01,2013-08-25 02:33:00,
2013-08-24 22:38:00,53.9,50.7,30.30,SW,222,0.0,0.0,89,0.00,,---,0.00,VWS V14.01,2013-08-25 02:38:00,
2013-08-24 22:43:00,53.7,50.8,30.30,SW,222,0.0,0.0,90,0.00,,---,0.00,VWS V14.01,2013-08-25 02:43:00,
2013-08-24 22:48:00,53.5,50.6,30.30,SW,222,0.0,0.0,90,0.00,,---,0.00,VWS V14.01,2013-08-25 02:48:00,
2013-08-24 22:53:00,53.2,50.7,30.30,SW,222,0.0,0.0,91,0.00,,---,0.00,VWS V14.01,2013-08-25 02:53:00,
2013-08-24 22:58:00,53.1,50.5,30.30,SW,222,0.0,0.0,91,0.00,,---,0.00,VWS V14.01,2013-08-25 02:58:00,
2013-08-24 23:00:00,55.0,51.2,30.30,SW,218,0.0,1.0,87,0.00,,---,0.00,VWS V14.01,2013-08-25 03:00:00,
2013-08-24 23:03:00,53.0,50.5,30.30,SW,223,0.0,0.0,91,0.00,,---,0.00,VWS V14.01,2013-08-25 03:03:00,
2013-08-24 23:08:00,53.0,50.5,30.30,SW,223,0.0,0.0,91,0.00,,---,0.00,VWS V14.01,2013-08-25 03:08:00,
2013-08-24 23:13:00,52.8,50.2,30.30,SW,222,0.0,0.0,91,0.00,,---,0.00,VWS V14.01,2013-08-25 03:13:00,
2013-08-24 23:18:00,52.7,50.2,30.30,SW,222,0.0,0.0,91,0.00,,---,0.00,VWS V14.01,2013-08-25 03:18:00,
2013-08-24 23:23:00,52.4,49.8,30.30,SW,223,0.0,0.0,91,0.00,,---,0.00,VWS V14.01,2013-08-25 03:23:00,
2013-08-24 23:28:00,52.3,50.0,30.30,SW,222,0.0,0.0,92,0.00,,---,0.00,VWS V14.01,2013-08-25 03:28:00,
2013-08-24 23:30:00,54.3,50.8,30.30,SW,222,0.0,0.0,88,0.00,,---,0.00,VWS V14.01,2013-08-25 03:30:00,
2013-08-24 23:33:00,52.2,50.0,30.30,SW,223,0.0,0.0,92,0.00,,---,0.00,VWS V14.01,2013-08-25 03:33:00,
2013-08-24 23:38:00,52.1,49.8,30.31,SW,224,0.0,0.0,92,0.00,,---,0.00,VWS V14.01,2013-08-25 03:38:00,
2013-08-24 23:43:00,52.0,50.0,30.31,SW,222,0.0,0.0,93,0.00,,---,0.00,VWS V14.01,2013-08-25 03:43:00,
2013-08-24 23:48:00,51.9,49.9,30.31,SW,222,0.0,0.0,93,0.00,,---,0.00,VWS V14.01,2013-08-25 03:48:00,
2013-08-24 23:53:00,51.8,49.8,30.31,SW,223,0.0,0.0,93,0.00,,---,0.00,VWS V14.01,2013-08-25 03:53:00,
2013-08-24 23:58:00,51.8,49.8,30.31,SW,222,0.0,0.0,93,0.00,,---,0.00,VWS V14.01,2013-08-25 03:58:00,